Probability
0 0 0 0 0 0 0 0 0 0 0 0 0 0 0 1 2 3 7 21 39 43 35 33 35 33 26 17 11 7 5 4 2 1 0 0 0 0 0 0 0 0 0 0 0 0 0 0 0
0 0 0 0 0 0 0 0 0 0 0 0 0 0 0 0 1 3 9 23 39 41 34 33 36 34 28 20 13 8 5 4 2 0 0 0 0 0 0 0 0 0 0 0 0 0 0 0 0
0 0 0 0 0 0 0 0 0 0 0 0 0 0 0 0 0 3 11 25 38 40 35 36 39 38 32 25 19 13 7 4 3 1 1 1 1 1 1 1 1 0 0 0 0 0 0 0 0
0 0 0 0 0 0 0 0 0 0 0 0 0 0 0 1 4 9 17 27 37 40 39 41 43 42 37 30 25 18 10 5 3 2 2 2 2 2 3 3 2 0 0 0 0 0 0 0 0
0 0 0 0 0 0 0 0 0 0 0 0 0 0 0 3 10 19 25 32 38 42 44 45 46 45 39 33 26 21 13 8 6 5 5 4 3 4 6 4 2 0 0 0 0 0 0 0 0
1 1 0 0 0 0 0 0 0 0 0 0 0 0 1 3 12 23 31 37 41 45 46 46 46 45 39 32 27 23 18 14 11 10 9 7 6 8 8 5 3 2 1 0 0 0 0 0 0
0 0 0 0 0 0 0 0 0 0 0 0 0 0 1 5 14 24 33 40 44 46 45 44 43 41 37 30 25 24 21 18 15 12 10 8 8 8 8 7 6 5 3 1 0 0 0 0 0
1 1 0 0 0 0 0 0 0 0 0 0 0 1 4 12 21 29 38 44 47 47 45 42 39 36 33 27 22 21 21 18 14 10 7 5 6 7 7 6 6 6 4 2 1 0 0 0 0
2 2 1 0 0 0 0 0 0 0 0 0 1 4 9 18 27 34 41 46 48 47 43 40 38 34 29 24 20 19 18 15 12 8 4 3 4 5 4 4 5 6 4 3 2 1 1 0 0
2 1 0 0 0 0 0 0 1 1 1 1 4 7 12 19 24 30 38 44 46 43 39 36 35 32 28 23 19 17 15 12 10 7 4 4 5 4 4 4 4 4 3 4 3 2 1 0 0
1 0 0 0 0 0 0 0 1 2 1 1 5 8 12 15 17 23 31 37 40 39 35 32 31 30 28 24 20 16 13 11 9 6 5 6 5 5 5 5 4 2 2 3 3 1 0 0 0
0 0 0 0 0 0 0 0 1 1 0 1 4 7 9 10 12 17 24 30 34 34 33 30 29 27 27 24 20 16 13 9 7 6 6 6 6 5 5 5 3 1 2 3 2 1 0 0 0
0 0 0 0 0 0 0 0 0 0 0 1 3 6 7 7 9 14 20 25 29 31 30 29 27 26 25 23 19 16 12 9 6 6 6 7 6 4 3 2 1 0 1 3 3 1 0 0 0
0 0 0 0 0 0 0 0 0 0 0 1 3 6 7 6 7 11 16 21 25 27 28 27 26 25 24 22 18 14 11 10 8 6 6 7 6 3 1 0 0 0 1 2 3 2 1 0 0
0 0 0 0 0 0 0 0 0 0 0 1 3 5 6 7 7 8 13 17 20 23 25 25 24 24 22 20 16 12 10 10 9 7 5 5 4 3 1 0 0 0 0 1 3 2 1 0 0
0 0 0 0 0 0 0 0 0 0 0 1 3 4 5 6 6 7 10 14 17 19 21 21 20 21 19 17 14 11 9 9 9 7 5 4 3 2 1 0 0 0 0 1 2 2 1 0 0
0 0 0 0 0 0 0 0 0 0 0 1 2 3 4 5 6 7 9 12 15 16 16 16 16 16 16 13 11 10 9 9 8 6 4 4 3 1 1 0 0 0 0 0 1 1 1 0 0
0 0 0 0 0 0 0 0 0 0 0 1 2 3 3 4 5 6 8 11 13 14 13 12 12 13 12 10 8 8 8 8 7 5 4 4 3 1 0 0 0 0 0 0 0 0 0 0 0
0 0 0 0 0 0 0 0 0 0 0 1 2 3 3 4 5 6 8 10 12 12 11 9 10 11 10 9 8 7 7 7 6 5 5 4 3 2 1 0 0 0 0 0 0 0 0 0 0
0 0 0 0 0 0 0 0 0 0 0 1 2 3 4 5 6 6 7 9 11 12 10 8 9 10 10 9 8 7 6 5 5 5 5 4 3 2 1 0 0 0 0 0 0 0 0 0 0
0 0 0 0 0 0 0 0 0 0 0 1 2 3 4 6 6 6 7 8 10 10 8 7 8 10 10 10 9 7 5 3 3 3 3 3 3 2 1 0 0 0 0 0 0 0 0 0 0
0 0 0 0 0 0 0 0 0 0 0 1 2 3 4 6 6 6 6 6 7 7 8 9 9 10 10 10 9 7 3 1 1 1 1 1 1 2 1 0 0 0 0 0 0 0 0 0 0
0 0 0 0 0 0 0 0 0 0 0 0 1 2 4 5 6 5 4 4 4 5 7 10 11 10 9 9 7 4 1 0 0 0 0 0 0 1 1 0 0 0 0 0 0 0 0 0 0
0 0 0 0 0 0 0 0 0 0 0 0 0 1 2 4 4 3 2 2 2 4 6 9 10 10 8 7 4 2 0 0 0 0 0 0 0 0 0 0 0 0 0 0 0 0 0 0 0
0 0 0 0 0 0 0 0 0 0 0 0 0 0 1 2 2 1 1 0 1 3 6 8 8 8 7 5 3 1 0 0 0 0 0 0 0 0 0 0 0 0 0 0 0 0 0 0 0
0 0 0 0 0 0 0 0 0 0 0 0 0 0 0 1 1 0 0 0 1 3 6 8 8 7 6 5 3 2 1 1 0 0 0 0 0 0 0 0 0 0 0 0 0 0 0 0 0
0 0 0 0 0 0 0 0 0 0 0 0 0 0 0 0 0 0 0 0 0 1 4 7 8 7 5 4 3 3 2 1 0 0 0 0 0 0 0 0 0 0 0 0 0 0 0 0 0
0 0 0 0 0 0 0 0 0 0 0 0 0 0 0 0 0 0 0 0 0 0 1 4 5 5 4 3 3 3 2 0 0 0 0 0 0 0 0 0 0 0 0 0 0 0 0 0 0
0 0 0 0 0 0 0 0 0 0 0 0 0 0 0 0 0 0 0 0 0 0 0 1 2 3 2 2 2 2 1 0 0 0 0 0 0 0 0 0 0 0 0 0 0 0 0 0 0
0 0 0 0 0 0 0 0 0 0 0 0 0 0 0 0 0 0 0 0 0 0 0 0 0 1 1 1 1 1 1 0 0 0 0 0 0 0 0 0 0 0 0 0 0 0 0 0 0
Wind_Speed
10 8 5 2 2 5 10 8 5 3 2 1 3 3 3 3 3 6 2 5 10 12 13 12 12 12 12 11 11 10 10 10 11 11 12 12 12 12 12 12 12 12 13 13 14 14 14 14 14
8 6 3 2 4 7 8 8 7 4 1 3 3 2 2 3 7 7 4 5 10 12 11 11 12 12 12 11 11 10 10 10 10 11 11 11 12 12 12 12 12 12 13 13 13 14 14 13 13
9 5 3 3 6 9 6 3 3 3 3 3 2 1 2 3 5 4 3 6 9 10 10 11 12 12 11 11 11 10 10 10 10 10 11 11 11 11 11 11 12 12 12 13 13 13 13 13 12
4 3 4 6 12 10 7 2 1 3 2 2 3 3 4 5 4 5 5 6 9 10 9 10 11 11 11 11 11 11 10 10 10 10 10 10 11 11 11 11 11 11 12 12 12 13 13 12 11
3 3 5 9 14 11 6 2 0 2 3 3 2 3 5 4 7 7 5 5 8 8 9 10 11 11 11 11 11 11 11 10 10 10 10 10 11 11 11 11 11 11 11 12 12 12 12 11 10
3 4 7 11 13 10 7 4 3 4 2 2 1 2 4 5 6 5 4 4 6 8 9 10 11 10 10 10 10 10 10 10 10 10 10 10 10 11 11 11 11 11 11 11 11 12 11 10 9
5 5 10 11 10 9 6 2 3 4 2 1 1 2 4 4 4 5 4 4 6 8 8 7 7 8 9 10 10 10 10 10 10 9 9 9 9 10 10 10 10 11 11 11 11 11 11 10 9
5 5 10 11 11 8 2 1 1 3 1 1 1 1 3 4 4 5 5 5 6 6 7 7 6 6 6 7 9 10 10 10 10 10 9 9 9 9 9 9 9 10 11 10 11 11 10 9 8
6 7 10 10 8 4 0 1 2 2 1 1 2 4 6 8 6 5 5 4 4 5 5 6 5 5 5 5 8 8 9 9 9 8 9 7 5 5 6 8 9 10 10 10 10 10 9 8 6
5 8 11 7 5 3 2 1 1 1 1 0 2 5 7 6 5 5 4 4 4 4 4 4 5 5 5 5 5 4 5 5 5 5 5 3 4 4 6 8 9 9 8 8 9 9 7 4 2
6 9 7 6 4 4 4 3 2 2 2 1 2 3 5 5 3 3 4 4 4 4 4 4 4 4 4 3 3 2 2 3 3 4 4 3 3 4 4 3 4 5 5 4 5 4 2 2 2
7 8 7 6 4 4 4 4 2 1 1 3 3 3 5 4 3 3 3 3 3 3 4 3 4 4 4 3 3 3 2 2 2 2 4 3 2 3 3 3 3 3 2 3 2 1 2 3 3
9 6 6 4 3 3 5 5 3 3 1 3 4 4 4 3 2 2 2 3 3 3 3 3 4 4 3 3 3 3 3 2 2 2 2 3 3 3 3 3 2 2 2 2 2 2 2 3 3
5 5 6 6 5 4 4 5 5 2 1 1 2 2 3 2 2 2 3 3 3 3 3 3 3 4 4 3 3 3 3 2 3 2 2 3 2 3 3 3 3 2 2 2 2 3 2 2 2
6 7 8 7 6 4 2 5 5 2 1 1 1 1 2 2 3 2 2 2 2 3 3 3 3 4 3 3 3 3 3 3 3 2 3 3 3 3 3 3 3 2 2 3 3 3 2 2 3
6 6 7 5 5 4 4 6 2 2 2 2 1 1 2 2 3 3 2 2 2 3 3 3 3 3 3 3 3 3 3 3 3 3 3 3 3 3 3 3 2 2 2 2 3 3 3 2 3
5 6 7 5 5 4 4 3 2 1 3 2 1 1 1 2 3 3 3 2 2 3 3 3 4 3 3 3 3 3 3 3 3 3 2 3 3 3 3 3 2 3 3 2 3 2 3 3 3
4 5 6 5 4 4 4 3 1 1 2 2 1 1 1 2 2 2 3 3 3 3 3 4 4 4 3 3 3 3 3 2 2 2 2 3 2 2 3 3 3 3 2 2 3 3 3 3 3
6 7 7 6 4 4 5 4 2 1 1 2 1 1 1 1 2 3 4 4 4 4 4 3 3 3 3 2 2 2 1 1 2 2 2 3 2 2 3 2 3 2 2 3 3 3 4 2 3
8 8 7 4 2 3 4 4 2 2 2 1 2 1 1 2 2 3 4 4 3 3 3 3 3 2 2 2 1 2 2 1 1 1 2 2 2 2 2 3 2 2 2 3 3 3 3 2 2
7 6 5 4 4 4 3 4 4 3 2 2 2 2 2 2 2 3 4 3 3 3 2 2 2 2 3 3 2 2 2 2 1 1 1 1 2 2 1 2 2 2 2 2 3 4 4 3 1
7 4 4 4 3 3 3 3 3 3 2 2 2 2 2 1 3 3 3 3 3 2 2 3 3 3 3 3 2 3 2 2 1 1 1 1 2 2 1 1 2 2 2 2 2 3 3 4 3
5 5 6 6 4 3 4 3 2 3 1 1 2 3 2 2 3 3 3 3 3 3 3 2 3 3 3 2 2 2 2 1 1 2 2 1 1 1 1 1 1 1 1 2 2 2 2 3 3
5 5 6 4 3 4 5 5 0 1 1 0 2 3 3 3 3 4 4 4 4 4 3 3 3 3 3 2 2 2 2 2 2 2 1 1 1 1 1 1 1 1 1 2 2 2 2 2 3
3 1 1 1 3 3 2 2 1 2 3 2 3 3 4 4 5 5 4 4 3 3 3 3 3 3 3 3 2 2 2 1 2 1 1 1 1 1 1 1 1 1 1 1 1 1 2 2 3
3 2 1 1 2 1 1 1 2 3 4 5 5 5 6 6 5 5 4 3 3 3 3 3 3 3 3 2 2 2 2 1 1 0 0 1 1 1 1 2 2 1 1 1 1 1 2 2 2
3 2 2 2 2 1 1 2 1 4 6 7 7 6 6 6 5 5 5 4 3 3 3 3 3 3 3 3 3 3 2 2 2 2 1 1 0 0 1 1 2 2 1 1 1 1 2 2 2
3 3 2 1 1 1 1 1 1 3 4 5 6 6 6 5 4 4 4 4 3 3 3 3 3 3 2 3 2 2 2 2 2 1 1 1 1 1 0 1 1 2 2 2 2 2 2 2 2
4 3 3 2 2 1 1 1 3 2 3 3 4 5 5 5 4 4 3 3 4 3 3 3 3 3 3 3 2 2 2 2 2 1 1 1 1 1 1 1 1 2 2 2 2 2 2 3 2
3 4 3 1 2 2 0 1 4 5 4 4 4 5 5 5 5 4 4 4 4 4 3 3 3 3 3 3 3 3 3 2 2 2 2 2 2 1 1 1 1 2 2 2 2 3 2 3 3
Wind_Direction
293 270 257 249 239 232 238 237 245 243 237 34 28 19 17 18 39 99 135 107 112 125 134 141 136 133 133 131 127 125 126 127 127 126 124 120 117 114 109 106 105 102 101 100 98 96 93 90 89
287 279 258 230 230 232 236 222 228 237 123 80 63 27 32 55 73 98 100 103 117 125 135 141 136 135 134 133 131 128 126 126 127 125 124 122 120 116 113 110 105 102 101 99 97 96 94 92 92
272 264 249 224 228 232 241 212 185 142 114 118 117 49 27 56 78 94 103 118 118 124 133 137 137 136 135 134 131 129 128 126 124 125 124 122 121 119 115 111 104 101 101 100 99 98 95 94 92
261 230 242 240 239 238 249 258 36 109 124 131 133 122 87 50 44 85 108 118 122 124 129 133 136 136 135 133 132 131 130 127 125 123 124 123 122 120 114 109 106 104 104 103 102 99 97 95 92
236 238 225 234 242 246 252 259 252 245 162 156 168 141 99 69 70 87 101 111 117 119 124 135 133 133 133 134 133 133 132 129 126 124 121 123 121 118 113 109 110 111 110 107 106 103 101 97 93
234 229 230 233 238 237 232 229 245 252 213 146 164 159 104 98 89 98 100 105 109 114 119 132 128 127 130 132 130 128 127 125 124 122 119 118 120 118 114 113 113 113 112 111 109 107 103 99 95
241 234 239 245 247 238 226 194 234 250 221 170 147 141 120 97 91 107 108 103 102 110 117 124 129 127 123 125 125 123 121 120 120 118 115 114 114 116 118 117 117 116 115 112 109 109 105 102 96
257 260 248 245 247 248 240 238 262 295 269 74 47 90 113 109 99 108 107 96 99 107 115 124 127 127 125 125 124 121 120 121 119 117 115 115 115 115 116 116 114 115 116 114 110 109 107 103 96
254 244 244 245 250 256 44 256 294 338 52 57 52 56 81 105 103 105 100 92 98 104 112 122 126 125 124 128 130 125 123 124 123 122 124 127 125 121 116 115 113 113 115 117 116 114 112 107 98
228 237 241 256 280 300 337 305 297 305 255 108 47 67 86 98 112 124 125 121 116 113 112 115 119 122 126 131 130 135 134 139 137 137 142 140 126 124 122 116 120 119 119 122 126 125 126 123 119
236 245 257 270 297 300 293 299 312 243 248 101 105 101 105 101 113 131 139 132 123 113 105 103 112 118 117 117 124 121 123 136 137 141 142 132 125 125 119 122 124 124 132 130 135 137 145 136 121
255 265 269 277 317 306 290 290 283 262 305 38 51 101 110 121 133 147 146 131 117 111 102 96 103 108 113 112 119 119 115 124 128 139 138 132 129 129 132 132 138 142 142 138 146 150 139 126 116
247 257 265 277 294 290 283 268 265 256 12 45 57 73 98 115 107 132 123 113 105 106 105 107 101 107 112 109 117 115 118 121 115 106 110 118 131 139 134 135 134 139 134 140 143 137 125 121 124
266 276 274 263 251 253 259 265 258 262 64 56 87 105 110 103 92 85 97 101 106 100 100 103 104 101 109 108 113 115 114 110 109 109 104 102 111 125 132 128 127 122 130 138 137 123 115 102 94
256 261 261 245 232 224 246 262 246 241 127 191 153 139 120 100 76 57 107 107 107 103 95 92 100 94 100 110 115 109 110 113 106 103 101 94 100 109 114 120 121 125 123 124 118 109 100 95 90
242 245 245 232 220 204 201 236 229 186 169 186 196 145 119 85 70 39 55 79 79 93 96 91 86 80 84 90 103 103 109 106 96 89 89 86 90 99 104 114 117 120 109 105 111 114 106 95 90
222 237 241 234 209 198 200 234 199 174 168 168 190 174 127 91 69 38 47 63 63 77 86 87 84 77 74 78 82 86 92 103 105 93 89 90 86 93 106 111 117 114 110 112 114 107 120 114 100
253 256 253 244 200 188 210 232 176 144 172 157 164 153 114 107 88 63 62 63 65 67 73 80 79 78 73 72 77 74 75 80 92 98 96 96 101 104 101 108 114 111 112 117 117 111 103 117 120
270 260 258 260 229 206 217 232 251 214 163 168 160 156 135 100 85 88 81 64 62 59 66 72 78 77 79 87 97 104 104 87 86 92 106 101 101 102 107 113 121 120 124 133 133 126 119 121 122
267 259 260 274 262 231 219 233 216 225 218 153 135 133 139 103 89 85 85 74 61 61 52 60 70 73 82 75 98 112 110 98 90 85 92 95 90 93 110 116 126 130 133 131 133 128 126 133 154
275 257 261 276 306 256 236 247 223 206 175 87 76 74 84 108 110 96 87 82 69 65 58 51 61 69 70 64 90 98 92 86 74 81 91 90 94 91 101 116 120 132 139 154 152 145 144 157 195
272 291 291 272 247 251 208 245 213 193 143 92 56 49 61 80 98 92 89 85 74 62 56 55 57 60 63 69 93 114 121 131 135 130 112 100 113 113 92 107 120 137 143 156 172 160 155 154 174
275 293 270 253 233 249 241 240 239 153 122 52 43 49 46 77 107 101 86 91 80 67 60 62 63 58 56 59 68 97 104 102 108 114 124 117 108 117 115 116 129 140 146 157 164 162 167 165 169
308 287 264 239 218 235 225 210 271 137 231 54 51 47 33 58 76 82 75 71 74 68 59 60 68 63 53 54 66 65 94 106 108 130 140 140 126 112 129 121 119 139 145 157 171 177 181 181 170
335 316 305 230 208 223 174 174 130 40 42 56 67 51 42 54 57 63 58 48 56 62 60 61 63 53 45 46 58 56 43 105 128 143 158 151 148 130 186 157 145 138 153 159 154 165 182 178 174
282 268 242 248 241 280 171 177 122 65 49 56 58 55 45 39 42 47 48 45 49 51 60 65 63 53 42 44 46 56 40 52 73 55 131 155 175 172 188 183 170 171 170 178 166 166 193 184 179
310 290 299 285 273 258 200 99 91 40 43 42 41 42 40 34 32 45 42 38 40 43 41 57 62 50 39 37 40 43 36 37 40 28 21 64 43 182 179 186 178 180 181 182 171 179 196 191 192
321 320 326 297 275 264 245 128 33 17 20 27 27 24 27 29 26 35 41 38 31 32 35 45 48 47 43 36 33 30 30 35 32 28 9 5 18 7 194 191 198 190 187 191 185 191 192 196 205
3 1 331 310 300 284 269 36 34 60 42 34 25 18 21 22 17 21 27 34 36 34 32 41 36 32 34 28 22 26 22 35 41 23 357 344 353 345 287 234 220 216 203 191 186 201 193 202 211
39 16 0 359 318 331 107 47 28 48 40 39 31 23 19 23 19 22 26 33 31 25 24 31 27 23 21 14 15 18 16 21 30 13 351 343 337 323 292 266 244 238 229 206 196 202 199 203 211